Tracking 18032 objects as of 24-March-2017
HD Live streaming from Space Station
objects crossing your sky now

COSMOS 2278

Track COSMOS 2278 now!
10-day predictions
COSMOS 2278 is classified as:


NORAD ID: 23087
Int'l Code: 1994-023A
Perigee: 847.1 km
Apogee: 860.5 km
Inclination: 71.1 °
Period: 101.9 minutes
Semi major axis: 7224 km
RCS: 13.2242 m2 (large)
Launch date: April 23, 1994
Source: Commonwealth of Independent States (former USSR) (CIS)
Launch site: TYURATAM MISSILE AND SPACE COMPLEX (TTMTR)
Your satellite tracking list
Your tracking list is empty





NASA's NSSDC Master Catalog

Two Line Element Set (TLE):
1 23087U 94023A   17082.87205184 +.00000244 +00000-0 +15380-3 0  9991
2 23087 071.0532 177.2892 0009271 333.5183 026.5464 14.13735010182194
Source of the keplerian elements: AFSPC